Location: Gwatt
(46.7204°N, 7.6223°E)
Time: 16:48:17
(UTC+00:00)

deb Explorer IX - Pass Details

Date: 28 January 2021
Orbit: 537 x 1102 km, 38.8° (Epoch: 04 March)

Event Time Altitude Azimuth Distance (km) Brightness Sun altitude
Rises 18:17:42 0° 262° (W) 3,736 ? -18.9°
Reaches altitude 10° 18:20:43 10° 255° (WSW) 2,707 ? -19.4°
Maximum altitude 18:26:36 37° 190° (S) 1,320 ? -20.4°
Enters shadow 18:29:25 23° 140° (SE) 1,671 ? -20.9°
Drops below altitude 10° 18:31:42 10° 124° (SE) 2,339 - -21.3°
Sets 18:34:08 0° 116° (ESE) 3,174 - -21.7°
